Theta_e
321 318 316 314 312 311 310 309 308 308 307 308 308 308 308 306 306 305 305 304 303 302 302 302 302 302 302 302 302 302 302 303
314 313 313 311 310 308 307 307 307 307 307 306 307 304 303 301 301 301 300 300 300 299 299 299 298 298 298 298 298 298 299 299
312 311 310 309 308 307 308 308 307 307 306 304 301 302 301 300 299 299 299 299 299 298 299 299 298 297 297 297 297 297 298 300
312 310 310 309 309 309 308 307 307 306 304 301 300 299 300 299 300 299 298 298 297 300 302 302 302 300 298 297 297 299 302 300
312 310 309 309 309 308 308 307 306 306 303 301 300 299 299 299 299 299 296 297 299 302 302 302 302 301 300 300 300 301 302 301
312 310 309 309 308 308 307 312 317 317 315 303 302 302 299 299 299 299 296 297 300 301 301 301 302 302 302 303 302 302 302 303
311 310 309 308 307 307 310 314 312 313 311 305 301 299 299 299 299 299 297 297 300 301 301 301 300 300 300 300 301 302 303 302
311 310 309 308 307 308 309 308 307 303 301 305 304 299 299 299 299 298 298 296 298 300 301 300 299 299 299 299 299 299 299 299
311 311 309 309 307 307 306 310 313 304 304 310 302 299 299 299 298 298 297 296 297 299 301 300 300 300 300 300 300 300 300 300
312 311 309 309 307 306 308 307 303 303 309 309 300 299 299 299 298 297 298 298 298 300 300 300 300 300 300 300 300 301 301 300
310 310 309 309 307 305 305 303 302 308 310 306 300 299 299 299 297 297 297 297 298 298 299 300 300 299 300 300 301 301 301 301
312 310 308 308 307 305 303 302 303 309 307 303 299 299 299 298 297 296 296 297 297 298 298 299 299 299 299 299 300 301 300 299
314 310 308 307 306 303 303 302 308 307 306 300 300 299 298 299 298 297 296 295 296 297 298 298 299 299 299 299 300 299 297 296
312 309 306 306 305 303 302 304 308 306 307 300 300 299 299 299 298 297 296 295 295 295 296 298 299 298 299 299 299 296 294 293
304 303 303 303 303 303 306 309 309 308 303 300 300 300 299 299 298 298 297 296 295 294 293 293 296 297 297 297 297 294 292 292
307 305 305 305 304 302 301 301 301 300 300 300 300 300 300 299 299 298 297 297 297 295 294 293 292 293 294 293 292 291 292 292
299 299 299 299 299 299 299 300 300 300 299 299 299 299 299 299 299 298 298 297 297 296 295 294 293 291 292 291 291 291 291 292
299 299 298 299 298 298 298 299 299 299 299 299 298 298 298 298 298 298 298 297 297 296 296 294 293 292 291 290 290 290 290 291
298 297 297 297 297 297 297 297 297 297 296 296 296 295 295 296 296 296 296 296 297 296 296 295 294 292 291 289 290 289 290 290
Wind_Speed
20 17 15 12 11 10 9 9 8 6 5 3 3 3 4 7 9 12 15 18 21 23 25 27 27 27 27 27 27 26 25 26
17 17 16 13 11 10 9 8 8 5 2 3 4 7 9 11 14 17 19 21 23 23 24 25 25 25 23 22 22 22 21 20
16 16 15 13 11 10 9 7 6 3 7 9 10 12 14 18 21 22 23 22 23 24 24 23 23 21 18 17 17 17 16 14
21 20 18 16 15 12 8 5 3 7 11 13 12 12 15 19 20 22 23 24 23 21 18 17 16 15 14 13 13 12 11 13
25 24 23 20 17 15 12 5 2 9 13 14 15 18 20 22 23 23 22 22 23 22 18 12 7 6 7 9 9 10 10 12
29 29 24 21 21 18 14 10 21 31 19 18 20 20 21 24 25 25 22 19 19 18 16 12 6 4 4 5 6 6 7 9
27 28 25 25 22 20 17 9 5 9 15 14 19 20 21 24 24 23 20 18 17 14 13 11 9 7 5 5 6 7 9 11
26 32 33 30 28 24 13 9 5 7 7 14 20 19 20 22 24 24 22 19 19 17 15 12 11 9 8 8 7 7 8 10
24 35 37 34 31 24 18 13 13 8 12 17 18 19 21 22 24 24 22 21 20 19 18 16 16 15 13 13 15 15 14 17
18 29 38 36 32 26 19 15 10 7 19 19 20 21 21 23 24 24 23 21 21 21 22 21 21 21 20 18 19 20 21 22
23 30 36 37 31 25 22 17 13 15 26 21 22 23 22 24 26 26 25 25 23 24 24 25 25 23 23 22 22 23 25 26
22 26 32 37 31 27 25 20 16 30 22 21 22 23 23 26 28 29 27 27 26 26 25 24 26 27 26 26 25 26 28 29
21 22 26 31 29 24 22 19 27 25 23 21 23 23 23 27 30 30 29 28 27 27 27 27 27 29 28 28 30 30 26 25
19 15 17 22 20 17 19 18 35 27 25 22 23 24 26 29 32 31 29 28 27 27 28 29 30 31 32 33 33 29 24 23
15 7 2 6 7 12 28 36 32 31 22 23 23 26 27 31 32 31 29 28 28 28 28 29 31 31 32 32 32 27 25 25
12 12 9 10 13 15 18 18 18 19 22 25 28 29 30 31 33 31 30 30 30 29 30 31 31 30 29 26 24 25 27 26
14 14 14 13 14 14 15 17 20 23 26 30 32 35 36 36 36 35 35 35 35 33 32 31 31 31 29 25 23 25 25 24
14 15 15 16 17 18 20 22 24 26 27 29 31 31 33 34 36 37 38 39 41 39 38 34 33 31 31 27 23 25 25 25
13 14 15 16 17 18 20 22 24 25 26 27 28 30 32 32 33 34 36 36 39 42 43 41 36 34 32 28 24 27 27 25
Wind_Direction
189 183 176 170 163 157 151 139 132 128 118 80 18 336 316 319 316 313 307 304 302 300 297 294 290 287 284 283 282 280 280 281
181 178 172 165 156 152 148 143 138 123 68 347 303 324 336 332 326 323 321 319 317 313 307 301 294 289 287 286 284 285 286 288
187 179 170 167 167 165 160 143 124 66 4 352 348 341 340 341 341 333 327 324 323 321 314 304 294 288 284 281 284 289 289 289
197 188 181 178 181 176 171 147 66 15 2 352 349 348 344 340 331 329 328 329 330 329 322 308 293 285 279 272 272 283 293 302
211 199 188 188 190 191 178 181 20 3 355 347 340 342 344 338 336 337 332 337 342 343 339 329 308 280 274 270 271 277 289 295
221 209 201 197 200 199 192 210 282 290 304 328 325 335 338 338 337 333 328 329 338 341 341 341 352 317 280 274 267 271 278 284
230 216 209 206 205 206 223 260 284 304 301 317 322 327 325 326 326 321 319 319 325 335 337 333 327 320 301 285 281 279 279 280
236 220 214 210 213 218 220 202 258 298 310 324 317 314 318 318 320 321 315 309 313 318 315 319 316 313 309 303 290 279 282 287
245 231 222 218 219 220 216 234 267 251 299 307 307 301 308 314 321 321 314 307 308 307 307 309 306 302 301 305 310 309 309 306
274 247 227 224 222 220 234 234 231 244 313 308 282 290 304 316 321 318 315 308 303 300 299 298 301 294 295 299 300 301 300 298
262 245 235 230 227 225 228 229 231 285 303 291 270 292 306 318 319 316 311 307 300 296 293 293 297 295 289 293 291 292 289 287
298 270 246 236 229 228 229 236 256 298 300 282 278 296 311 316 316 314 309 304 298 295 294 289 289 292 294 295 293 294 289 286
316 298 270 238 227 231 240 251 292 302 300 271 284 299 312 315 314 311 306 302 297 294 294 293 289 289 291 291 292 293 288 286
340 316 274 232 228 247 254 269 301 290 290 273 286 305 309 312 312 310 307 304 299 294 291 288 286 286 285 287 289 288 283 281
9 359 297 239 253 280 283 286 288 291 278 275 291 308 308 313 312 310 306 304 301 298 295 291 283 280 280 282 285 281 276 280
25 17 359 324 314 320 328 320 307 302 289 288 299 301 297 300 306 305 303 302 303 301 300 296 291 282 281 280 276 272 277 278
31 26 15 1 346 335 325 312 301 294 288 288 293 295 294 294 297 299 295 294 295 295 294 294 293 290 283 275 266 270 274 275
8 1 351 341 332 325 318 312 305 301 300 299 300 299 294 290 292 292 292 290 289 288 289 288 286 287 289 280 267 267 273 274
15 8 359 352 343 336 334 329 326 326 326 325 324 323 320 315 311 307 307 302 293 286 283 281 283 281 286 283 265 264 270 271